Regional Weather Roundup
Issued by NWS

Home | Current Version | Previous Version | Graphics & Text | Print | Product List | Glossary On
Versions: 1 2 3 4 5 6 7 8 9 10 11 12 13 14 15 16 17 18 19 20 21 22 23 24 25 26 27 28 29 30 31 32 33 34 35 36 37 38 39 40 41 42 43 44 45 46 47 48 49 50
000
ASUS43 KDMX 252301
RWRIA

WEATHER ROUNDUP FOR IOWA
NATIONAL WEATHER SERVICE DES MOINES IA
600 PM CDT FRI MAY 25 2018

NOTE: "FAIR" INDICATES FEW OR NO CLOUDS BELOW 12,000 FEET WITH NO
SIGNIFICANT WEATHER AND/OR OBSTRUCTIONS TO VISIBILITY.

* - THESE STATIONS ARE NOT NWS STATIONS...THUS NOT UNDER NWS
QUALITY CONTROL.  THEY ALSO DO NOT REPORT WEATHER SUCH
AS PRECIPITATION OR FOG.

IAZ001>003-012>014-020>022-031>034-043>046-260000-
   NORTHWEST IOWA

CITY           SKY/WX    TMP DP  RH WIND       PRES   REMARKS
CARROLL *      MOSUNNY   93  55  27 W9G16     29.71F HX  91
CHEROKEE *     MOSUNNY   92  56  30 CALM      29.72S HX  90
DENISON *      CLOUDY    91  59  33 SW10      29.74F HX  90
LE MARS *      SUNNY     95  48  20 W9        29.72S HX  91
ORANGE CITY *  SUNNY     91  50  24 W9        29.73F HX  88
SHELDON *      SUNNY     91  54  27 NW15      29.72R HX  89
SIOUX CITY     SUNNY     92  58  31 CALM      29.72F HX  91
SPENCER        MOSUNNY   90  54  29 W13       29.72S HX  88
STORM LAKE *   SUNNY     88  54  31 NW8       29.73F HX  86
$$

IAZ055>058-069>071-079>083-090>094-260000-
   SOUTHWEST IOWA

CITY           SKY/WX    TMP DP  RH WIND       PRES   REMARKS
ATLANTIC *     SUNNY     90  59  35 W12       29.73F HX  89
AUDUBON *      MOSUNNY   88  61  40 W3        29.75F HX  88
CLARINDA *     SUNNY     91  61  35 W9        29.76F HX  91
COUNCIL BLFS * MOSUNNY   90  61  37 SW3G12    29.74S HX  89
CRESTON *      SUNNY     88  61  40 SW13      29.77F HX  88
HARLAN  *      CLOUDY    90  61  37 W9        29.77F HX  89
LAMONI         SUNNY     84  63  49 W12       29.77F HX  85
RED OAK *      SUNNY     91  61  35 SW7       29.73F HX  91
SHENANDOAH *   SUNNY     93  57  29 SW13G18   29.73F HX  92
$$

IAZ047>049-059>061-072>074-084-260000-
   CENTRAL IOWA

CITY           SKY/WX    TMP DP  RH WIND       PRES   REMARKS
AMES           PTSUNNY   86  66  51 S10       29.71F HX  88
ANKENY *       SUNNY     86  68  54 SW12G17   29.74S HX  89
BOONE *        PTSUNNY   90  64  43 W12G18    29.71S HX  91
CHARITON *     SUNNY     84  64  51 SW8       29.77S HX  86
DES MOINES     MOSUNNY   88  67  49 S12       29.72F HX  91
GRINNELL*      SUNNY     84  67  56 SW12      29.76F HX  86
KNOXVILLE *    SUNNY     84  66  54 SW14      29.74F HX  86
MARSHALLTOWN   SUNNY     87  66  49 S13       29.72F HX  89
NEWTON *       MOSUNNY   86  68  54 SW13      29.74F HX  89
PELLA *        SUNNY     84  68  57 SW7       29.76F HX  87
PERRY *        LGT RAIN  84  63  49 S8        29.72S HX  85
$$

IAZ004>006-015-016-023>025-035-036-260000-
   NORTH CENTRAL IOWA

CITY           SKY/WX    TMP DP  RH WIND       PRES   REMARKS
ALGONA *       SUNNY     90  59  35 N8G14     29.71F HX  89
CLARION *      CLOUDY    91  55  29 NW14G22   29.70F HX  89
ESTHERVILLE    SUNNY     88  58  36 MISG      29.71F HX  87
FORT DODGE *   SUNNY     92  56  29 NW9       29.71S HX  90
MASON CITY     MOSUNNY   88  60  38 W12       29.71F HX  87
FOREST CITY *  FAIR      86  63  45 NW7       29.70F HX  87
IOWA FALLS *   PTSUNNY   85  70  60 NW17G23   29.76R HX  89
$$

IAZ007>011-017>019-026>030-037>042-050>054-066-260000-
   NORTHEAST IOWA

CITY           SKY/WX    TMP DP  RH WIND       PRES   REMARKS
CEDAR RAPIDS   FAIR      84  66  54 S12       29.74F HX  86
CHARLES CITY * DRIZZLE   81  59  47 N25       29.74R HX  81
DUBUQUE        FAIR      79  65  62 S13       29.76F HX  81
MONTICELLO *   FAIR      86  66  51 SW9G17    29.74F HX  88
OELWEIN *      FAIR      88  63  42 SW12G20   29.71F HX  88
WATERLOO       FAIR      86  65  49 S9        29.69F HX  88
$$

IAZ064-065-067-068-078-260000-
   EAST CENTRAL IOWA

CITY           SKY/WX    TMP DP  RH WIND       PRES   REMARKS
DAVENPORT      FAIR      79  65  62 S10       29.79F HX  81
IOWA CITY      FAIR      84  66  54 S8        29.76F HX  86
MUSCATINE *    FAIR      82  66  57 SE7       29.77S HX  85
QUAD CITIES    FAIR      80  68  66 CALM      29.77S HX  83
$$

IAZ062-063-075>077-085>089-095>099-260000-
   SOUTHEAST IOWA

CITY           SKY/WX    TMP DP  RH WIND       PRES   REMARKS
BURLINGTON     CLOUDY    82  66  58 S6        29.78S HX  84
FAIRFIELD *    CLOUDY    84  66  54 SW7       29.77S HX  86
FORT MADISON * CLOUDY    82  70  65 S3        29.79S HX  86
KEOKUK *       CLOUDY    81  66  61 CALM      29.78S HX  83
OSKALOOSA *    FAIR      85  64  50 SW12      29.77S HX  86
CENTERVILLE *  FAIR      82  66  57 S6        29.80S HX  85
OTTUMWA        MOSUNNY   84  66  54 SW9       29.76F HX  86
WASHINGTON *   CLOUDY    84  68  58 SW10      29.77F HX  87
$$

ABBREVIATIONS USED IN REMARKS
   TC - TEMPERATURES IN CELSIUS
  WCI - WIND CHILL INDEX
   HX - HEAT INDEX
  VSB - VISIBILITY
$$




USA.gov is the U.S. government's official web portal to all federal, state and local government web resources and services.